Weather History for Lakeville, MN

Change the Weather History Date:

Thursday, December 8, 2011

  Actual Average Record
Temperature  
Mean Temperature 18 °F -  
Max Temperature 26 °F 27 °F 52 °F (1990)
Min Temperature 10 °F 13 °F -20 °F (1978)
Degree Days  
Heating Degree Days 47    
Moisture  
Dew Point 9 °F    
Average Humidity 67    
Maximum Humidity 86    
Minimum Humidity 49    
Precipitation  
Precipitation 0.00 in - - ()
Sea Level Pressure  
Sea Level Pressure 30.13 in    
Wind  
Wind Speed 10 mph (West)    
Max Wind Speed 18 mph    
Max Gust Speed 26 mph    
Visibility 10 miles    
Events      
Averages and records for this station are not official NWS values.
T = Trace of Precipitation, MM = Missing Value Source: NWS Daily Summary

Daily Weather History Graph

Daily Weather History Graph

Search for Another Location

Airport:

Trip Planner

Search our weather history database for the weather conditions in past years. The results will help you decide how hot, cold, wet, or windy it might be!

Date:

Astronomy

Dec. 08, 2011 Rise Set
Actual Time 7:36 AM CST 4:32 PM CST
Civil Twilight 7:03 AM CST 5:05 PM CST
Nautical Twilight 6:26 AM CST 5:42 PM CST
Astronomical Twilight 5:51 AM CST 6:17 PM CST
Moon 3:12 PM CST (12/8) 5:48 AM CST (12/8)
Length of Visible Light 10h 02m
Length of Day
8h 55m
Waxing Gibbous, 97% of the Moon is Illuminated
Dec 8
Waxing Gibbous
Dec 10
Full
Dec 17
Last Quarter
Dec 24
New
Jan 1
First Quarter

Hourly Weather History & Observations

Time (CST) Temp. Windchill Dew Point Humidity Pressure Visibility Wind Dir Wind Speed Gust Speed Precip Events Conditions
12:09 AM 26.6 °F 16.2 °F 19.4 °F 74% 30.07 in 10.0 mi West 11.5 mph 17.3 mph N/A   Overcast
12:30 AM 26.6 °F 15.2 °F 19.4 °F 74% 30.07 in 10.0 mi West 13.8 mph - N/A   Overcast
12:49 AM 26.6 °F 16.8 °F 19.4 °F 74% 30.07 in 10.0 mi West 10.4 mph - N/A   Overcast
1:09 AM 26.6 °F 16.8 °F 19.4 °F 74% 30.07 in 10.0 mi WNW 10.4 mph 17.3 mph N/A   Overcast
1:30 AM 24.8 °F 13.4 °F 17.6 °F 74% 30.07 in 10.0 mi NW 12.7 mph 20.7 mph N/A   Mostly Cloudy
1:49 AM 24.8 °F 14.6 °F 15.8 °F 69% 30.08 in 10.0 mi WNW 10.4 mph 18.4 mph N/A   Scattered Clouds
2:09 AM 23.0 °F 14.7 °F 14.0 °F 68% 30.09 in 10.0 mi WNW 6.9 mph - N/A   Clear
2:30 AM 21.2 °F 13.6 °F 14.0 °F 74% 30.10 in 10.0 mi West 5.8 mph - N/A   Clear
2:49 AM 21.2 °F 13.6 °F 12.2 °F 68% 30.10 in 10.0 mi West 5.8 mph - N/A   Clear
3:09 AM 21.2 °F 13.6 °F 14.0 °F 74% 30.10 in 10.0 mi West 5.8 mph - N/A   Clear
3:30 AM 19.4 °F 10.4 °F 12.2 °F 74% 30.09 in 10.0 mi West 6.9 mph - N/A   Clear
3:49 AM 15.8 °F 7.2 °F 10.4 °F 79% 30.10 in 10.0 mi West 5.8 mph - N/A   Clear
4:09 AM 19.4 °F 10.4 °F 12.2 °F 74% 30.09 in 10.0 mi West 6.9 mph - N/A   Clear
4:30 AM 17.6 °F 8.2 °F 12.2 °F 79% 30.09 in 10.0 mi West 6.9 mph - N/A   Clear
4:49 AM 15.8 °F 7.2 °F 10.4 °F 79% 30.09 in 10.0 mi West 5.8 mph - N/A   Clear
5:09 AM 17.6 °F 9.3 °F 12.2 °F 79% 30.10 in 10.0 mi SW 5.8 mph - N/A   Clear
5:49 AM 17.6 °F 6.4 °F 12.2 °F 79% 30.11 in 10.0 mi WSW 9.2 mph - N/A   Clear
6:10 AM 15.8 °F 4.2 °F 12.2 °F 86% 30.11 in 10.0 mi WSW 9.2 mph - N/A   Clear
6:49 AM 15.8 °F 4.2 °F 12.2 °F 86% 30.12 in 10.0 mi WSW 9.2 mph - N/A   Scattered Clouds
7:10 AM 15.8 °F 5.1 °F 10.4 °F 79% 30.13 in 10.0 mi WSW 8.1 mph - N/A   Clear
7:30 AM 15.8 °F 6.1 °F 10.4 °F 79% 30.14 in 10.0 mi WSW 6.9 mph - N/A   Scattered Clouds
7:49 AM 15.8 °F 3.4 °F 10.4 °F 79% 30.15 in 10.0 mi WSW 10.4 mph - N/A   Overcast
8:10 AM 15.8 °F 5.1 °F 10.4 °F 79% 30.15 in 10.0 mi WSW 8.1 mph - N/A   Mostly Cloudy
8:30 AM 15.8 °F 3.4 °F 10.4 °F 79% 30.16 in 10.0 mi WSW 10.4 mph - N/A   Scattered Clouds
8:49 AM 15.8 °F 5.1 °F 10.4 °F 79% 30.16 in 10.0 mi WSW 8.1 mph - N/A   Clear
9:10 AM 17.6 °F 5.7 °F 10.4 °F 73% 30.17 in 10.0 mi West 10.4 mph - N/A   Clear
9:30 AM 19.4 °F 9.5 °F 10.4 °F 68% 30.17 in 10.0 mi West 8.1 mph - N/A   Clear
9:49 AM 19.4 °F 7.9 °F 10.4 °F 68% 30.17 in 10.0 mi West 10.4 mph 16.1 mph N/A   Clear
10:10 AM 19.4 °F 8.6 °F 10.4 °F 68% 30.17 in 10.0 mi West 9.2 mph - N/A   Clear
10:29 AM 19.4 °F 8.6 °F 12.2 °F 74% 30.17 in 10.0 mi West 9.2 mph - N/A   Clear
10:49 AM 19.4 °F 8.6 °F 10.4 °F 68% 30.17 in 10.0 mi West 9.2 mph - N/A   Clear
11:10 AM 19.4 °F 6.0 °F 8.6 °F 63% 30.16 in 10.0 mi West 13.8 mph - N/A   Clear
11:30 AM 19.4 °F 5.5 °F 6.8 °F 58% 30.16 in 10.0 mi West 15.0 mph - N/A   Clear
11:49 AM 21.2 °F 9.5 °F 6.8 °F 54% 30.15 in 10.0 mi West 11.5 mph 16.1 mph N/A   Clear
12:10 PM 21.2 °F 6.8 °F 5.0 °F 50% 30.15 in 10.0 mi West 17.3 mph 20.7 mph N/A   Clear
12:30 PM 21.2 °F 7.3 °F 6.8 °F 54% 30.14 in 10.0 mi West 16.1 mph 21.9 mph N/A   Clear
12:49 PM 21.2 °F 8.3 °F 6.8 °F 54% 30.14 in 10.0 mi West 13.8 mph - N/A   Clear
1:10 PM 21.2 °F 7.8 °F 6.8 °F 54% 30.14 in 10.0 mi West 15.0 mph 26.5 mph N/A   Clear
1:30 PM 21.2 °F 6.4 °F 6.8 °F 54% 30.13 in 10.0 mi West 18.4 mph 21.9 mph N/A   Clear
1:49 PM 21.2 °F 7.8 °F 5.0 °F 50% 30.14 in 10.0 mi West 15.0 mph 21.9 mph N/A   Clear
2:10 PM 19.4 °F 6.0 °F 6.8 °F 58% 30.13 in 10.0 mi West 13.8 mph 23.0 mph N/A   Clear
2:30 PM 19.4 °F 4.5 °F 6.8 °F 58% 30.13 in 10.0 mi West 17.3 mph 23.0 mph N/A   Clear
2:49 PM 19.4 °F 4.5 °F 6.8 °F 58% 30.12 in 10.0 mi West 17.3 mph 20.7 mph N/A   Clear
3:10 PM 19.4 °F 6.6 °F 5.0 °F 54% 30.13 in 10.0 mi West 12.7 mph 18.4 mph N/A   Clear
3:30 PM 19.4 °F 5.5 °F 3.2 °F 49% 30.13 in 10.0 mi West 15.0 mph 20.7 mph N/A   Clear
3:47 PM 19.4 °F 6.6 °F 3.2 °F 49% 30.13 in 10.0 mi West 12.7 mph 17.3 mph N/A   Clear
4:09 PM 17.6 °F 5.7 °F 3.2 °F 53% 30.14 in 10.0 mi West 10.4 mph - N/A   Clear
4:30 PM 17.6 °F 6.4 °F 3.2 °F 53% 30.14 in 10.0 mi West 9.2 mph - N/A   Clear
5:09 PM 15.8 °F 4.2 °F 3.2 °F 58% 30.14 in 10.0 mi WSW 9.2 mph - N/A   Clear
5:30 PM 15.8 °F 8.6 °F 3.2 °F 58% 30.15 in 10.0 mi WSW 4.6 mph - N/A   Clear
6:09 PM 12.2 °F 1.7 °F 3.2 °F 67% 30.15 in 10.0 mi West 6.9 mph - N/A   Clear
6:30 PM 12.2 °F 6.1 °F 1.4 °F 62% 30.15 in 10.0 mi WSW 3.5 mph - N/A   Clear
6:49 PM 10.4 °F 0.8 °F 3.2 °F 73% 30.15 in 10.0 mi SW 5.8 mph - N/A   Clear
7:10 PM 10.4 °F 4.0 °F 1.4 °F 67% 30.16 in 10.0 mi SW 3.5 mph - N/A   Clear
7:29 PM 10.4 °F 2.2 °F 1.4 °F 67% 30.16 in 10.0 mi SW 4.6 mph - N/A   Clear
7:49 PM 10.4 °F - 1.4 °F 67% 30.16 in 10.0 mi Calm Calm - N/A   Clear
8:10 PM 10.4 °F 2.2 °F 1.4 °F 67% 30.16 in 10.0 mi WSW 4.6 mph - N/A   Clear
8:29 PM 10.4 °F 4.0 °F 1.4 °F 67% 30.17 in 10.0 mi West 3.5 mph - N/A   Clear
8:49 PM 10.4 °F -0.4 °F 1.4 °F 67% 30.16 in 10.0 mi WSW 6.9 mph - N/A   Clear
9:10 PM 10.4 °F 2.2 °F 1.4 °F 67% 30.16 in 10.0 mi WSW 4.6 mph - N/A   Scattered Clouds
9:29 PM 10.4 °F 2.2 °F 1.4 °F 67% 30.17 in 10.0 mi WSW 4.6 mph - N/A   Clear
9:50 PM 8.6 °F -1.3 °F 1.4 °F 73% 30.17 in 10.0 mi WSW 5.8 mph - N/A   Clear
10:10 PM 8.6 °F 0.1 °F 1.4 °F 73% 30.18 in 10.0 mi WSW 4.6 mph - N/A   Clear
10:29 PM 8.6 °F -2.6 °F 1.4 °F 73% 30.18 in 10.0 mi WSW 6.9 mph - N/A   Clear
10:49 PM 6.8 °F -3.5 °F 1.4 °F 79% 30.18 in 10.0 mi WSW 5.8 mph - N/A   Clear
11:10 PM 8.6 °F -2.6 °F 1.4 °F 73% 30.18 in 10.0 mi West 6.9 mph - N/A   Clear
11:29 PM 8.6 °F -2.6 °F 1.4 °F 73% 30.19 in 10.0 mi WSW 6.9 mph - N/A   Clear
11:49 PM 8.6 °F -3.7 °F -0.4 °F 67% 30.19 in 10.0 mi West 8.1 mph - N/A   Clear